Pine Ridge, SD

2:52 PM MST on January 17, 2017 (GMT -0700)
Pine Ridge

Weather History for KIEN - March, 2013

Change the Weather History Date:

Monday, March 11, 2013

  Actual Average Record
Temperature  
Mean Temperature 35 °F 35 °F  
Max Temperature 51 °F 49 °F 76 °F (2016)
Min Temperature 19 °F 21 °F -27 °F (1998)
Degree Days  
Heating Degree Days 30 30  
Month to date heating degree days 322 354  
Since 1 July heating degree days 5423 5704  
Cooling Degree Days 0 0  
Month to date cooling degree days 0 0  
Year to date cooling degree days 0 0  
Moisture  
Dew Point 17 °F    
Average Humidity 52    
Maximum Humidity 80    
Minimum Humidity 23    
Precipitation  
Precipitation T in 0.02 in 0.17 in (2001)
Month to date precipitation 0.05 0.22  
Year to date precipitation 0.99 1.01  
Sea Level Pressure  
Sea Level Pressure 30.01 in    
Wind  
Wind Speed 9 mph (NW)    
Max Wind Speed 22 mph    
Max Gust Speed 30 mph    
Visibility 10 miles    
Events      
T = Trace of Precipitation, MM = Missing Value Source: NWS Daily Summary

Daily Weather History Graph

Daily Weather History Graph

Search for Another Location

Airport or City:

Trip Planner

Search our weather history database for the weather conditions in past years. The results will help you decide how hot, cold, wet, or windy it might be!

Date:

Astronomy

Mar. 11, 2013 Rise Set
Actual Time 7:08 AM MDT 6:51 PM MDT
Civil Twilight 6:40 AM MDT 7:20 PM MDT
Nautical Twilight 6:07 AM MDT 7:53 PM MDT
Astronomical Twilight 5:34 AM MDT 8:26 PM MDT
Moon 6:42 AM MDT (3/11) 7:08 PM MDT (3/11)
Length of Visible Light 12h 39m
Length of Day
11h 43m
Waning Crescent, 0% of the Moon is Illuminated
Mar 11
Waning Crescent
Mar 11
New
Mar 19
First Quarter
Mar 27
Full
Apr 2
Last Quarter

Hourly Weather History & Observations

Time (MDT) Temp. Windchill Dew Point Humidity Pressure Visibility Wind Dir Wind Speed Gust Speed Precip Events Conditions
12:52 AM 18.0 °F - 12.9 °F 81% 30.05 in 10.0 mi Calm Calm - N/A   Clear
1:52 AM 21.9 °F 17.2 °F 14.0 °F 72% 30.02 in 10.0 mi West 3.5 mph - N/A   Clear
2:52 AM 21.9 °F 13.4 °F 14.0 °F 72% 30.00 in 10.0 mi WSW 6.9 mph - N/A   Clear
4:52 AM 26.1 °F 19.4 °F 15.1 °F 63% 29.95 in 10.0 mi West 5.8 mph - N/A   Mostly Cloudy
5:52 AM 26.1 °F - 16.0 °F 66% 29.95 in 10.0 mi Calm Calm - N/A   Partly Cloudy
6:52 AM 27.0 °F - 17.1 °F 66% 29.96 in 10.0 mi Calm Calm - N/A   Overcast
7:52 AM 30.9 °F 27.5 °F 16.0 °F 54% 29.99 in 10.0 mi West 3.5 mph - N/A   Overcast
8:52 AM 35.1 °F 31.0 °F 17.1 °F 48% 30.01 in 10.0 mi West 4.6 mph - N/A   Overcast
9:52 AM 39.9 °F 35.8 °F 18.0 °F 41% 29.99 in 10.0 mi West 5.8 mph - N/A   Overcast
10:52 AM 44.1 °F 38.6 °F 21.0 °F 40% 29.98 in 10.0 mi West 10.4 mph - N/A   Mostly Cloudy
11:52 AM 46.9 °F - 24.1 °F 41% 29.97 in 10.0 mi West 11.5 mph - N/A   Scattered Clouds
12:52 PM 46.9 °F - 26.1 °F 44% 29.97 in 10.0 mi WNW 13.8 mph 17.3 mph 0.00 in   Mostly Cloudy
1:15 PM 46.4 °F 40.7 °F 15.8 °F 29% 29.90 in 10.0 mi North 12.7 mph 27.6 mph N/A   Mostly Cloudy
1:52 PM 48.0 °F - 12.9 °F 24% 29.95 in 10.0 mi North 18.4 mph 24.2 mph N/A   Scattered Clouds
2:52 PM 46.9 °F - 12.0 °F 24% 29.94 in 10.0 mi North 13.8 mph 24.2 mph N/A   Mostly Cloudy
3:52 PM 42.1 °F 34.2 °F 19.9 °F 41% 29.99 in 8.0 mi WNW 16.1 mph 28.8 mph N/A   Overcast
4:52 PM 46.0 °F 40.2 °F 17.1 °F 31% 29.97 in 10.0 mi North 12.7 mph 23.0 mph N/A   Overcast
5:52 PM 43.0 °F 35.1 °F 12.9 °F 30% 29.99 in 10.0 mi North 17.3 mph 27.6 mph N/A   Clear
6:52 PM 39.9 °F 32.5 °F 15.1 °F 36% 30.04 in 10.0 mi North 12.7 mph 21.9 mph N/A   Overcast
7:52 PM 37.0 °F 31.0 °F 17.1 °F 44% 30.07 in 10.0 mi North 8.1 mph 17.3 mph N/A   Overcast
8:52 PM 35.1 °F 27.4 °F 17.1 °F 48% 30.11 in 10.0 mi NNW 10.4 mph 17.3 mph N/A   Partly Cloudy
9:52 PM 34.0 °F 25.0 °F 16.0 °F 48% 30.12 in 10.0 mi North 12.7 mph 18.4 mph N/A   Scattered Clouds
10:52 PM 33.1 °F 25.5 °F 17.1 °F 52% 30.13 in 10.0 mi NW 9.2 mph - N/A   Scattered Clouds
11:52 PM 28.9 °F 21.1 °F 17.1 °F 61% 30.16 in 10.0 mi West 8.1 mph - N/A   Clear